Change the Weather History Date:

Wednesday, December 4, 2013

  Actual Average Record
Temperature  
Mean Temperature 74 °F -  
Max Temperature 83 °F 74 °F 83 °F (2013)
Min Temperature 64 °F 58 °F 57 °F (2006)
Cooling Degree Days 8    
Growing Degree Days 24 (Base 50)    
Moisture  
Dew Point 58 °F    
Average Humidity 62    
Maximum Humidity 88    
Minimum Humidity 18    
Precipitation  
Precipitation 0.00 in 0.02 in - ()
Sea Level Pressure  
Sea Level Pressure 30.01 in    
Wind  
Wind Speed 4 mph ()    
Max Wind Speed 12 mph    
Max Gust Speed -    
Visibility 5.0 miles    
Events      
Averages and records for this station are not official NWS values.
T = Trace of Precipitation, MM = Missing Value Source: Averaged Metar Reports

Daily Weather History Graph

Daily Weather History Graph

Search for Another Location

Airport or City:

Trip Planner

Search our weather history database for the weather conditions in past years. The results will help you decide how hot, cold, wet, or windy it might be!

Date:

Astronomy

Dec. 04, 2013 Rise Set
Actual Time 6:04 AM AST 4:43 PM AST
Civil Twilight 5:39 AM AST 5:08 PM AST
Nautical Twilight 5:11 AM AST 5:36 PM AST
Astronomical Twilight 4:43 AM AST 6:04 PM AST
Moon 7:13 AM AST (12/4) 6:23 PM AST (12/4)
Length of Visible Light 11h 28m
Length of Day
10h 39m
Waxing Crescent, 3% of the Moon is Illuminated
Dec 4
Waxing Crescent
Dec 9
First Quarter
Dec 17
Full
Dec 25
Last Quarter
Jan 1
New

Hourly Weather History & Observations

Time (AST) Temp. Heat Index Dew Point Humidity Pressure Visibility Wind Dir Wind Speed Gust Speed Precip Events Conditions
12:00 AM 70 °F - 63 °F 72% 30.00 in 7 mi 1.2 mph - -  
12:00 AM 69.8 °F - 62.6 °F 78% 29.98 in - Variable 1.2 mph - N/A   Clear
1:00 AM 68.0 °F - 62.6 °F 83% 29.98 in - Variable 2.3 mph - N/A   Clear
2:00 AM 66.2 °F - 62.6 °F 88% 29.98 in 5.0 mi Calm Calm - N/A   Unknown
3:00 AM 67 °F - 62 °F 78% 29.99 in 5 mi SW 3.5 mph - -   Haze
3:00 AM 66.2 °F - 62.6 °F 88% 29.98 in 5.0 mi SW 3.5 mph - N/A   Unknown
3:30 AM 66.2 °F - 60.8 °F 83% 29.98 in 5.0 mi SW 3.5 mph - N/A   Unknown
4:30 AM 66.2 °F - 60.8 °F 83% 29.98 in 5.0 mi SSW 3.5 mph - N/A   Unknown
5:00 AM 64.4 °F - 60.8 °F 88% 29.98 in 5.0 mi SW 3.5 mph - N/A   Unknown
5:30 AM 64.4 °F - 60.8 °F 88% 29.98 in 5.0 mi SW 3.5 mph - N/A   Unknown
6:00 AM 65 °F - 61 °F 81% 30.01 in 4 mi 2.3 mph - -   Haze
6:00 AM 64.4 °F - 60.8 °F 88% 30.01 in 3.7 mi Variable 2.3 mph - N/A   Unknown
6:30 AM 64.4 °F - 60.8 °F 88% 30.01 in 3.7 mi SW 3.5 mph - N/A   Unknown
7:00 AM 66.2 °F - 62.6 °F 88% 30.04 in 3.7 mi Variable 2.3 mph - N/A   Unknown
7:30 AM 68.0 °F - 62.6 °F 83% 30.04 in 3.7 mi Variable 2.3 mph - N/A   Unknown
8:00 AM 69.8 °F - 62.6 °F 78% 30.04 in 3.1 mi SSW 4.6 mph - N/A   Haze
9:00 AM 73 °F - 63 °F 64% 30.08 in 4 mi SSW 4.6 mph - -   Haze
9:00 AM 73.4 °F - 62.6 °F 69% 30.06 in 3.7 mi SSW 4.6 mph - N/A   Unknown
9:30 AM 75.2 °F - 57.2 °F 53% 30.06 in 5.0 mi SSW 6.9 mph - N/A   Unknown
10:00 AM 77.0 °F - 53.6 °F 44% 30.06 in 5.6 mi North - - N/A   Unknown
10:30 AM 77.0 °F - 50.0 °F 39% 30.04 in - SSW 6.9 mph - N/A   Clear
11:00 AM 78.8 °F - 53.6 °F 42% 30.04 in - SW 5.8 mph - N/A   Clear
11:30 AM 80.6 °F - 50.0 °F 34% 30.04 in - SW 5.8 mph - N/A   Clear
12:00 PM 82 °F - 46 °F 18% 30.02 in 6 mi SSW 5.8 mph - -   Clear
12:00 PM 82.4 °F - 46.4 °F 28% 30.01 in - SSW 5.8 mph - N/A   Clear
12:30 PM 82.4 °F - 41.0 °F 23% 30.01 in - SSW 4.6 mph - N/A   Clear
1:00 PM 82.4 °F 82.0 °F 57.2 °F 42% 29.98 in - SE 3.5 mph - N/A   Clear
1:30 PM 80.6 °F 81.1 °F 59.0 °F 48% 29.98 in - ESE 10.4 mph - N/A   Clear
2:00 PM 78.8 °F - 59.0 °F 51% 29.98 in - SE 11.5 mph - N/A   Clear
2:30 PM 78.8 °F - 57.2 °F 47% 29.98 in - SE 9.2 mph - N/A   Clear
3:00 PM 78 °F - 57 °F 38% 29.99 in 6 mi SE 9.2 mph - -  
3:00 PM 78.8 °F - 57.2 °F 47% 29.98 in - SE 9.2 mph - N/A   Clear
3:30 PM 77.0 °F - 55.4 °F 47% 29.98 in - SE 11.5 mph - N/A   Clear
4:00 PM 77.0 °F - 57.2 °F 50% 29.98 in - SE 10.4 mph - N/A   Clear
4:30 PM 75.2 °F - 59.0 °F 57% 29.98 in - SE 8.1 mph - N/A   Clear
5:00 PM 75.2 °F - 59.0 °F 57% 29.98 in - SE 8.1 mph - N/A   Clear
5:30 PM 73.4 °F - 59.0 °F 61% 29.98 in - ESE 4.6 mph - N/A   Clear
6:00 PM 73 °F - 59 °F 51% 30.00 in 7 mi SE 3.5 mph - -  
6:00 PM 73.4 °F - 59.0 °F 61% 29.98 in - SE 3.5 mph - N/A   Clear
6:30 PM 71.6 °F - 59.0 °F 64% 29.98 in - SE 2.3 mph - N/A   Clear
7:00 PM 71.6 °F - 57.2 °F 60% 30.01 in - SE 2.3 mph - N/A   Clear
7:30 PM 71.6 °F - 59.0 °F 64% 30.01 in - SSE 5.8 mph - N/A   Clear
8:00 PM 71.6 °F - 59.0 °F 64% 30.01 in - SE 3.5 mph - N/A   Clear
9:00 PM 71 °F - 58 °F 55% 30.04 in 9 mi East 3.5 mph - -   Clear
9:00 PM 71.6 °F - 59.0 °F 64% 30.04 in - East 3.5 mph - N/A   Clear
9:30 PM 71.6 °F - 59.0 °F 64% 30.01 in - East 3.5 mph - N/A   Clear
10:00 PM 71.6 °F - 60.8 °F 69% 30.01 in - East 3.5 mph - N/A   Clear
10:30 PM 71.6 °F - 60.8 °F 69% 30.01 in - ESE 3.5 mph - N/A   Clear
11:00 PM 71.6 °F - 60.8 °F 69% 30.01 in - ESE 4.6 mph - N/A   Clear
11:30 PM 71.6 °F - 60.8 °F 69% 30.01 in - ESE 4.6 mph - N/A   Clear